SCP
0 0 0 0 0 0 0 0 0 0 0 0 0 1 1 1 1 1 1 1 0 0 1 1 1 1 1 1 1 1 1 1 1 1 1 1 1 1
0 0 0 0 0 0 0 0 0 0 0 0 0 0 1 1 1 1 1 1 0 0 1 1 1 1 1 1 1 1 1 0 1 1 1 1 1 1
0 0 0 0 0 0 0 0 0 0 0 0 0 0 1 1 0 0 0 0 0 0 0 0 1 1 1 1 1 1 0 0 0 0 0 1 1 1
0 0 0 0 0 0 0 0 0 0 0 0 0 0 0 0 0 0 0 0 1 0 0 0 0 0 1 1 1 1 0 0 0 0 0 0 1 1
0 0 0 0 0 0 0 0 0 0 0 0 0 0 0 0 0 0 0 0 1 0 0 0 0 0 1 1 1 1 0 0 0 0 0 0 0 0
0 0 0 0 0 0 0 0 0 0 0 0 0 0 0 0 0 0 0 0 0 0 0 0 1 0 0 0 0 0 0 0 0 0 0 0 0 0
0 0 0 0 0 0 0 0 0 0 0 0 0 0 0 0 0 0 0 0 0 0 0 0 1 0 0 0 0 0 0 0 0 0 0 0 0 0
0 0 0 0 0 0 0 0 0 0 0 0 0 0 0 0 0 0 0 0 0 0 0 0 0 0 0 0 0 0 0 0 0 0 0 0 0 0
0 0 0 0 0 0 0 0 0 0 0 0 0 0 0 0 0 0 0 0 0 0 0 0 0 0 0 0 0 0 0 0 0 0 0 0 0 0
0 0 0 0 0 0 0 0 0 0 0 0 0 0 0 0 0 0 0 0 0 0 0 0 0 0 0 0 0 0 0 0 0 0 0 0 0 0
0 0 0 0 0 0 0 0 0 0 0 0 0 0 0 0 0 0 0 0 0 0 0 0 0 0 0 0 0 0 0 0 0 0 0 0 0 0
0 0 0 0 0 0 0 0 0 0 0 0 0 0 0 0 0 0 0 0 0 0 0 0 0 0 0 0 0 0 0 0 0 0 0 0 0 0
0 0 0 0 0 0 0 0 0 0 0 0 0 0 0 0 0 0 0 0 0 0 0 0 0 0 0 0 0 0 0 0 0 0 0 0 0 0
0 0 0 0 0 0 0 0 0 0 0 0 0 0 0 0 0 0 0 0 0 0 0 0 0 0 0 0 0 0 0 0 0 0 0 0 0 0
0 0 0 0 0 0 0 0 0 0 0 0 0 0 0 0 0 0 0 0 0 0 0 0 0 0 0 0 0 0 0 0 0 0 0 0 0 0
0 0 0 0 0 0 0 0 0 0 0 0 0 0 0 0 0 0 0 0 0 0 0 0 0 0 0 0 0 0 0 0 0 0 0 0 0 0
0 0 0 0 0 0 0 0 0 0 0 0 0 0 0 0 0 0 0 0 0 0 0 0 0 0 0 0 0 0 0 0 0 0 0 0 0 0
0 0 0 0 0 0 0 0 0 0 0 0 0 0 0 0 0 0 0 0 0 0 0 0 0 0 0 0 0 0 0 0 0 0 0 0 0 0
0 0 0 0 0 0 0 0 0 0 0 0 0 0 0 0 0 0 0 0 0 0 0 0 0 0 0 0 0 0 0 0 0 0 0 0 0 0
0 0 0 0 0 0 0 0 0 0 0 0 0 0 0 0 0 0 0 0 0 0 0 0 0 0 0 0 0 0 0 0 0 0 0 0 0 0
0 0 0 0 0 0 0 0 0 0 0 0 0 0 0 0 0 0 0 0 0 0 0 0 0 0 0 0 0 0 0 0 0 0 0 0 0 0
0 0 0 0 0 0 0 0 0 0 0 0 0 0 0 0 0 0 0 0 0 0 0 0 0 0 0 0 0 0 0 0 0 0 0 0 0 0
0 0 0 0 0 0 0 0 0 0 0 0 0 0 0 0 0 0 0 0 0 0 0 0 0 0 0 0 0 0 0 0 0 0 0 0 0 0
Wind_Speed
1 1 1 1 1 1 2 3 3 2 1 1 1 1 1 1 2 2 2 4 5 5 5 6 6 6 6 6 6 6 6 7 7 7 8 9 9 10
0 0 1 1 0 1 1 2 2 3 2 1 1 1 1 0 2 2 2 4 5 5 5 5 6 6 6 6 6 6 6 7 7 7 7 8 8 9
1 1 0 1 1 1 1 1 1 2 2 1 0 0 0 0 0 0 1 2 2 5 6 6 6 6 6 6 7 7 7 7 7 7 8 8 8 8
0 1 0 1 1 1 1 1 1 2 3 2 0 0 0 1 1 1 1 1 1 4 6 6 6 6 6 7 7 7 7 7 7 7 7 8 8 8
1 1 1 2 1 1 1 1 1 1 2 2 1 0 0 0 1 0 0 0 1 2 5 6 6 6 6 6 6 6 7 7 7 8 8 8 8 9
0 1 1 2 2 2 2 1 1 1 1 2 1 0 0 1 1 0 1 1 1 1 1 2 4 5 6 6 6 7 7 7 8 8 8 8 8 9
1 1 0 1 2 2 2 2 2 2 1 1 1 0 0 0 0 0 0 1 1 1 0 1 1 2 3 4 6 7 7 7 8 8 8 8 8 8
1 1 1 1 0 2 3 4 5 4 3 2 1 1 1 1 1 1 1 0 2 1 0 2 1 2 2 2 5 6 6 7 7 7 7 8 8 9
1 1 1 1 1 0 1 1 2 3 5 4 3 3 3 3 2 1 1 2 2 2 1 2 1 2 2 3 5 5 6 7 7 7 7 8 8 9
0 1 0 1 1 1 1 1 0 1 2 2 3 3 3 3 3 3 2 1 1 1 1 1 1 2 2 2 4 4 4 5 5 6 7 7 8 8
1 0 0 0 1 2 2 2 0 2 1 2 2 2 2 2 2 2 1 1 1 2 0 1 1 2 2 2 2 3 3 4 5 5 6 6 7 7
1 2 1 1 1 2 2 2 1 1 1 1 1 2 1 1 0 2 3 2 1 1 1 1 1 1 2 2 2 1 2 3 4 5 6 7 6 4
0 1 1 2 2 2 3 2 2 1 1 1 1 1 2 1 1 0 1 2 2 2 1 1 0 0 0 2 3 2 1 1 2 3 5 7 6 4
1 1 1 2 3 4 3 3 3 3 2 2 2 2 1 1 1 1 0 1 1 1 1 1 1 1 1 1 2 3 2 2 1 2 2 4 5 6
2 2 3 3 4 3 5 5 4 3 2 2 1 1 1 1 1 1 2 2 2 2 2 1 1 1 1 2 2 2 2 2 2 2 2 2 2 2
1 2 4 5 4 4 4 4 3 2 2 1 1 1 1 2 2 2 2 2 2 3 3 3 2 0 1 1 1 2 1 2 2 3 3 3 3 2
3 2 2 2 2 2 2 2 2 2 2 2 2 2 2 2 2 2 2 2 2 2 3 4 4 2 1 1 0 1 2 2 3 3 3 3 4 3
5 3 2 2 2 1 1 1 2 2 1 1 2 2 2 2 2 2 2 2 2 2 2 3 4 4 3 2 1 1 2 2 3 3 2 3 5 4
4 3 3 2 2 2 2 2 1 1 1 2 2 2 2 2 2 2 2 2 2 2 2 2 3 2 2 3 4 3 2 3 3 3 3 3 5 5
3 3 3 3 3 2 2 2 2 2 2 2 2 2 2 2 2 2 2 1 1 1 2 2 2 1 1 2 3 3 4 3 3 4 4 4 4 6
4 3 3 3 3 3 3 2 2 2 2 2 2 2 2 2 2 1 1 2 1 1 1 2 3 4 2 1 2 4 4 4 4 4 4 5 5 4
4 4 4 4 3 3 3 3 3 2 2 2 2 1 1 2 2 1 1 1 0 0 1 2 3 2 1 1 3 4 5 5 5 7 6 5 3 4
5 5 4 4 4 3 3 4 4 3 2 2 2 1 1 1 1 1 0 0 0 1 1 2 2 2 1 2 3 3 5 6 5 5 5 7 9 11
Wind_Direction
193 186 190 233 193 174 155 150 147 143 249 269 299 304 296 203 177 166 182 203 201 204 206 207 207 205 209 214 221 228 229 225 223 225 229 230 228 229
163 159 207 211 134 126 140 140 143 149 177 236 239 239 257 236 190 179 201 206 206 210 213 209 211 209 212 216 221 223 225 225 224 226 231 233 231 232
53 126 214 156 115 106 113 123 134 138 157 257 299 287 177 172 18 206 206 205 212 215 217 215 218 216 217 220 223 222 221 223 225 230 235 235 234 235
198 97 32 126 107 98 111 123 141 154 153 167 286 358 8 197 181 203 247 215 218 225 223 223 226 223 224 226 225 223 221 224 226 229 234 238 241 242
187 158 172 128 121 119 124 132 139 132 139 151 183 315 336 54 86 80 61 333 255 230 225 226 231 231 229 228 226 225 225 228 230 232 235 238 243 246
174 159 173 162 172 160 154 159 137 113 121 133 141 74 6 356 82 76 356 330 289 273 249 229 236 236 237 232 228 228 228 231 232 233 235 238 240 244
57 59 119 173 180 170 158 163 145 129 119 125 138 80 356 26 213 215 242 305 295 248 275 261 244 247 245 244 237 231 230 232 234 235 237 239 242 247
81 26 3 17 196 182 166 158 157 155 161 159 170 184 230 222 206 188 165 47 298 279 222 275 227 246 246 234 238 236 232 231 234 237 239 240 242 245
115 58 6 7 31 113 123 118 160 172 172 167 176 206 208 211 184 194 199 197 232 254 162 276 270 260 256 247 244 241 239 238 240 240 243 244 245 248
116 155 159 327 317 156 142 115 181 255 224 187 188 211 220 216 195 194 198 215 290 294 159 230 279 267 276 263 253 237 238 247 249 250 253 253 253 253
336 333 119 5 355 120 126 136 65 316 280 196 201 223 226 213 178 127 119 108 329 306 307 178 278 293 294 289 287 270 257 260 262 260 265 268 264 262
359 352 11 40 24 92 131 142 155 287 343 16 10 355 352 352 122 163 166 159 174 274 276 166 282 349 323 307 305 314 293 285 283 279 282 280 273 257
155 318 322 13 47 80 117 144 182 176 108 76 43 24 23 18 8 3 175 167 169 226 250 160 195 177 233 303 314 304 294 293 293 287 284 285 279 253
180 223 254 72 74 70 79 76 85 89 84 73 62 35 14 346 329 337 13 157 159 193 239 146 175 198 198 269 290 309 309 295 288 287 291 294 283 273
169 147 108 83 69 57 57 65 73 79 85 85 77 9 316 324 359 12 22 46 50 36 33 51 147 200 190 220 259 285 303 303 299 295 299 289 278 279
134 98 83 73 70 61 52 48 59 80 101 102 95 31 29 41 37 31 36 26 37 5 3 12 9 109 221 252 237 270 282 297 315 308 299 291 284 268
130 88 71 65 61 48 44 44 47 57 66 60 70 64 53 51 36 26 42 54 61 18 354 351 349 344 272 201 278 303 307 302 297 303 305 298 287 279
126 120 129 130 131 128 109 73 53 54 55 73 76 75 72 71 56 41 49 63 60 32 11 354 356 2 4 352 353 318 323 309 308 308 296 292 293 294
133 147 156 161 158 150 137 123 106 69 72 79 78 75 77 72 67 56 50 54 51 36 12 6 17 30 9 327 320 10 348 319 319 315 300 286 286 294
155 162 168 167 160 154 147 135 119 91 78 77 76 72 75 81 75 63 55 56 44 26 10 7 11 8 276 272 288 313 338 333 323 314 307 297 286 288
171 165 163 160 158 154 149 139 128 118 106 100 90 86 87 93 89 77 65 48 46 27 359 327 299 308 288 334 322 314 312 317 315 306 311 313 314 314
168 164 162 157 154 150 142 133 124 117 112 106 107 101 94 99 103 92 81 68 21 318 303 305 320 340 10 339 304 303 307 312 311 308 304 300 305 303
170 164 161 156 150 144 140 136 134 132 130 128 124 120 114 108 109 110 107 84 340 320 318 320 328 332 313 291 292 298 305 311 314 317 308 302 299 295